PTOJE SBRD-SBCT

Flight info

Callsign PTOJE
Flight time 2h 27m
Altitude 24000
Route EGIMO/N0243F250 DCT VUROB DCT ROKOR DCT LON UZ63 GEGOB
Aircraft PAY2/L-SDFGRY/C

Departure

Time 2026-05-07 21:48
Airport Maestro Marinho Franco Airport (SBRD)

Arrival

Time 2026-05-08 00:15
Airport Curitiba-Afonso Pena International Airport (SBCT)
Time Latitude Longitude Altitude Speed Heading
2026-05-07 21:32 -16.59038 -54.72235 1453 ft 0 kts
2026-05-07 21:41 -16.59027 -54.72248 1453 ft 7 kts 268°
2026-05-07 21:42 -16.59026 -54.72304 1453 ft 6 kts 273°
2026-05-07 21:42 -16.59020 -54.72345 1452 ft 4 kts 325°
2026-05-07 21:42 -16.58988 -54.72347 1452 ft 7 kts
2026-05-07 21:42 -16.58938 -54.72346 1451 ft 3 kts 359°
2026-05-07 21:43 -16.58918 -54.72346 1450 ft 3 kts
2026-05-07 21:43 -16.58882 -54.72345 1450 ft 6 kts
2026-05-07 21:43 -16.58859 -54.72384 1449 ft 8 kts 276°
2026-05-07 21:43 -16.58851 -54.72459 1448 ft 11 kts 298°
2026-05-07 21:44 -16.58778 -54.72485 1447 ft 11 kts
2026-05-07 21:44 -16.58695 -54.72481 1446 ft 11 kts
2026-05-07 21:44 -16.58613 -54.72481 1445 ft 11 kts 359°
2026-05-07 21:44 -16.58529 -54.72483 1444 ft 12 kts 358°
2026-05-07 21:45 -16.58440 -54.72484 1443 ft 12 kts
2026-05-07 21:45 -16.58349 -54.72478 1442 ft 13 kts
2026-05-07 21:45 -16.58255 -54.72475 1441 ft 13 kts
2026-05-07 21:45 -16.58160 -54.72473 1441 ft 14 kts 360°
2026-05-07 21:46 -16.58051 -54.72472 1441 ft 17 kts
2026-05-07 21:46 -16.57930 -54.72470 1441 ft 15 kts
2026-05-07 21:46 -16.57848 -54.72473 1442 ft 8 kts 348°
2026-05-07 21:46 -16.57809 -54.72491 1442 ft 5 kts 333°
2026-05-07 21:47 -16.57801 -54.72469 1442 ft 9 kts 173°
2026-05-07 21:47 -16.58003 -54.72472 1441 ft 65 kts 179°
2026-05-07 21:47 -16.58723 -54.72486 1500 ft 129 kts 180°
2026-05-07 21:47 -16.59677 -54.72502 1892 ft 147 kts 181°
2026-05-07 21:48 -16.60759 -54.72541 2376 ft 162 kts 181°
2026-05-07 21:48 -16.61885 -54.72540 3011 ft 163 kts 180°
2026-05-07 21:48 -16.63021 -54.72537 3563 ft 165 kts 181°
2026-05-07 21:48 -16.64161 -54.72535 4127 ft 166 kts 180°
2026-05-07 21:49 -16.65328 -54.72544 4671 ft 168 kts 182°
2026-05-07 21:49 -16.66475 -54.72561 5219 ft 167 kts 180°
2026-05-07 21:49 -16.67661 -54.72543 5728 ft 170 kts 178°
2026-05-07 21:49 -16.68844 -54.72509 6253 ft 170 kts 178°
2026-05-07 21:50 -16.70023 -54.72467 6770 ft 170 kts 178°
2026-05-07 21:50 -16.71208 -54.72424 7256 ft 173 kts 177°
2026-05-07 21:50 -16.72400 -54.72378 7820 ft 172 kts 178°
2026-05-07 21:50 -16.73610 -54.72332 8357 ft 174 kts 178°
2026-05-07 21:51 -16.74807 -54.72287 8878 ft 174 kts 178°
2026-05-07 21:51 -16.76019 -54.72243 9385 ft 175 kts 179°
2026-05-07 21:51 -16.77231 -54.72198 9902 ft 174 kts 179°
2026-05-07 21:51 -16.78443 -54.72156 10381 ft 174 kts 179°
2026-05-07 21:52 -16.79646 -54.72114 10836 ft 175 kts 179°
2026-05-07 21:52 -16.80863 -54.72071 11273 ft 176 kts 179°
2026-05-07 21:52 -16.82073 -54.72027 11714 ft 176 kts 179°
2026-05-07 21:52 -16.83309 -54.71980 12151 ft 176 kts 180°
2026-05-07 21:53 -16.84517 -54.71935 12639 ft 175 kts 180°
2026-05-07 21:53 -16.85742 -54.71889 13095 ft 175 kts 180°
2026-05-07 21:53 -16.86956 -54.71845 13521 ft 177 kts 180°
2026-05-07 21:53 -16.88177 -54.71805 13937 ft 178 kts 180°
2026-05-07 21:54 -16.89426 -54.71762 14344 ft 179 kts 180°
2026-05-07 21:54 -16.90688 -54.71715 14723 ft 181 kts 180°
2026-05-07 21:54 -16.91943 -54.71670 15106 ft 182 kts 180°
2026-05-07 21:54 -16.93216 -54.71624 15483 ft 183 kts 180°
2026-05-07 21:55 -16.94480 -54.71577 15848 ft 183 kts 180°
2026-05-07 21:55 -16.95758 -54.71531 16210 ft 184 kts 179°
2026-05-07 21:55 -16.97044 -54.71482 16538 ft 185 kts 180°
2026-05-07 21:55 -16.98329 -54.71435 16867 ft 187 kts 179°
2026-05-07 21:56 -16.99640 -54.71386 17183 ft 188 kts 180°
2026-05-07 21:56 -17.00947 -54.71338 17505 ft 189 kts 180°
2026-05-07 21:56 -17.02267 -54.71290 17829 ft 189 kts 180°
2026-05-07 21:56 -17.03585 -54.71241 18118 ft 191 kts 180°
2026-05-07 21:57 -17.04916 -54.71194 18432 ft 191 kts 180°
2026-05-07 21:57 -17.06247 -54.71150 18730 ft 191 kts 180°
2026-05-07 21:57 -17.07583 -54.71122 19013 ft 192 kts 181°
2026-05-07 21:57 -17.08923 -54.71108 19310 ft 194 kts 181°
2026-05-07 21:58 -17.10277 -54.71091 19666 ft 194 kts 181°
2026-05-07 21:58 -17.11626 -54.71060 20023 ft 193 kts 180°
2026-05-07 21:58 -17.12977 -54.71022 20379 ft 192 kts 180°
2026-05-07 21:58 -17.14298 -54.70978 20731 ft 191 kts 180°
2026-05-07 21:59 -17.15623 -54.70935 21089 ft 188 kts 180°
2026-05-07 21:59 -17.16929 -54.70890 21447 ft 186 kts 180°
2026-05-07 21:59 -17.18217 -54.70843 21805 ft 183 kts 180°
2026-05-07 21:59 -17.19484 -54.70797 22171 ft 180 kts 180°
2026-05-07 22:00 -17.20709 -54.70753 22535 ft 176 kts 180°
2026-05-07 22:00 -17.21935 -54.70710 22880 ft 174 kts 180°
2026-05-07 22:00 -17.23151 -54.70667 23153 ft 176 kts 180°
2026-05-07 22:00 -17.24373 -54.70622 23427 ft 177 kts 181°
2026-05-07 22:01 -17.25605 -54.70579 23714 ft 177 kts 181°
2026-05-07 22:01 -17.26838 -54.70535 23988 ft 177 kts 181°
2026-05-07 22:01 -17.28075 -54.70491 24250 ft 177 kts 181°
2026-05-07 22:01 -17.29314 -54.70447 24511 ft 178 kts 182°
2026-05-07 22:02 -17.30558 -54.70401 24761 ft 178 kts 182°
2026-05-07 22:02 -17.31814 -54.70357 24887 ft 186 kts 182°
2026-05-07 22:02 -17.33151 -54.70314 24909 ft 199 kts 182°
2026-05-07 22:02 -17.34594 -54.70264 24909 ft 211 kts 181°
2026-05-07 22:03 -17.36098 -54.70210 24909 ft 221 kts 181°
2026-05-07 22:03 -17.37661 -54.70155 24908 ft 229 kts 181°
2026-05-07 22:03 -17.39269 -54.70096 24902 ft 235 kts 181°
2026-05-07 22:03 -17.40951 -54.70032 24902 ft 240 kts 181°
2026-05-07 22:04 -17.42629 -54.69973 24900 ft 245 kts 181°
2026-05-07 22:04 -17.44349 -54.69912 24899 ft 248 kts 181°
2026-05-07 22:04 -17.46108 -54.69846 24895 ft 252 kts 181°
2026-05-07 22:04 -17.47852 -54.69780 24894 ft 254 kts 181°
2026-05-07 22:05 -17.49645 -54.69715 24894 ft 256 kts 181°
2026-05-07 22:05 -17.51432 -54.69653 24895 ft 257 kts 180°
2026-05-07 22:05 -17.53220 -54.69586 24894 ft 259 kts 180°
2026-05-07 22:05 -17.55044 -54.69521 24894 ft 260 kts 180°
2026-05-07 22:06 -17.56843 -54.69421 24881 ft 263 kts 173°
2026-05-07 22:06 -17.58575 -54.68722 24905 ft 265 kts 158°
2026-05-07 22:06 -17.60249 -54.67896 24896 ft 266 kts 157°
2026-05-07 22:06 -17.61912 -54.67056 24894 ft 267 kts 156°
2026-05-07 22:07 -17.63595 -54.66206 24893 ft 267 kts 156°
2026-05-07 22:07 -17.65264 -54.65356 24892 ft 268 kts 156°
2026-05-07 22:07 -17.66945 -54.64502 24890 ft 268 kts 156°
2026-05-07 22:07 -17.68623 -54.63647 24889 ft 268 kts 156°
2026-05-07 22:08 -17.70318 -54.62789 24891 ft 268 kts 156°
2026-05-07 22:08 -17.72007 -54.61932 24890 ft 269 kts 156°
2026-05-07 22:08 -17.73693 -54.61074 24890 ft 269 kts 156°
2026-05-07 22:08 -17.75377 -54.60214 24890 ft 269 kts 156°
2026-05-07 22:09 -17.77065 -54.59358 24887 ft 270 kts 156°
2026-05-07 22:09 -17.78761 -54.58492 24885 ft 270 kts 156°
2026-05-07 22:09 -17.80457 -54.57630 24883 ft 271 kts 156°
2026-05-07 22:09 -17.82140 -54.56774 24880 ft 271 kts 156°
2026-05-07 22:10 -17.83843 -54.55909 24878 ft 271 kts 156°
2026-05-07 22:10 -17.85546 -54.55041 24875 ft 271 kts 156°
2026-05-07 22:10 -17.87242 -54.54178 24874 ft 271 kts 156°
2026-05-07 22:10 -17.88940 -54.53312 24878 ft 271 kts 156°
2026-05-07 22:11 -17.90632 -54.52450 24872 ft 271 kts 156°
2026-05-07 22:11 -17.92336 -54.51580 24871 ft 271 kts 156°
2026-05-07 22:11 -17.94042 -54.50710 24871 ft 271 kts 156°
2026-05-07 22:11 -17.95738 -54.49845 24869 ft 272 kts 156°
2026-05-07 22:12 -17.97449 -54.48974 24874 ft 272 kts 156°
2026-05-07 22:12 -17.99150 -54.48106 24871 ft 272 kts 156°
2026-05-07 22:12 -18.00875 -54.47228 24871 ft 272 kts 156°
2026-05-07 22:12 -18.02576 -54.46360 24870 ft 272 kts 156°
2026-05-07 22:13 -18.04268 -54.45493 24873 ft 272 kts 156°
2026-05-07 22:13 -18.05969 -54.44627 24873 ft 272 kts 156°
2026-05-07 22:13 -18.07678 -54.43752 24877 ft 272 kts 156°
2026-05-07 22:13 -18.09398 -54.42874 24883 ft 272 kts 156°
2026-05-07 22:14 -18.11086 -54.42015 24884 ft 272 kts 156°
2026-05-07 22:14 -18.12792 -54.41145 24888 ft 272 kts 156°
2026-05-07 22:14 -18.14501 -54.40272 24898 ft 272 kts 156°
2026-05-07 22:14 -18.16207 -54.39396 24904 ft 272 kts 156°
2026-05-07 22:15 -18.17906 -54.38528 24899 ft 272 kts 156°
2026-05-07 22:15 -18.19624 -54.37647 24902 ft 272 kts 156°
2026-05-07 22:15 -18.21328 -54.36774 24902 ft 273 kts 156°
2026-05-07 22:15 -18.23041 -54.35901 24904 ft 273 kts 157°
2026-05-07 22:16 -18.24748 -54.35026 24907 ft 273 kts 156°
2026-05-07 22:16 -18.26461 -54.34152 24903 ft 272 kts 156°
2026-05-07 22:16 -18.28153 -54.33286 24903 ft 272 kts 156°
2026-05-07 22:16 -18.29859 -54.32412 24901 ft 272 kts 156°
2026-05-07 22:17 -18.31562 -54.31538 24896 ft 272 kts 156°
2026-05-07 22:17 -18.33273 -54.30660 24898 ft 273 kts 156°
2026-05-07 22:17 -18.35000 -54.29776 24899 ft 272 kts 156°
2026-05-07 22:17 -18.36689 -54.28914 24902 ft 272 kts 156°
2026-05-07 22:18 -18.38402 -54.28034 24902 ft 273 kts 156°
2026-05-07 22:18 -18.41818 -54.26280 24898 ft 273 kts 156°
2026-05-07 22:18 -18.43532 -54.25404 24895 ft 273 kts 156°
2026-05-07 22:19 -18.45245 -54.24526 24895 ft 273 kts 156°
2026-05-07 22:19 -18.46950 -54.23648 24893 ft 274 kts 156°
2026-05-07 22:19 -18.48672 -54.22765 24893 ft 274 kts 156°
2026-05-07 22:19 -18.50400 -54.21878 24890 ft 274 kts 156°
2026-05-07 22:20 -18.52098 -54.21007 24887 ft 274 kts 156°
2026-05-07 22:20 -18.53818 -54.20123 24890 ft 274 kts 156°
2026-05-07 22:20 -18.55553 -54.19230 24889 ft 274 kts 156°
2026-05-07 22:20 -18.57270 -54.18347 24889 ft 274 kts 156°
2026-05-07 22:21 -18.58987 -54.17466 24892 ft 274 kts 156°
2026-05-07 22:21 -18.60689 -54.16590 24892 ft 274 kts 156°
2026-05-07 22:21 -18.62400 -54.15711 24887 ft 274 kts 156°
2026-05-07 22:21 -18.64134 -54.14819 24896 ft 274 kts 157°
2026-05-07 22:22 -18.65845 -54.13938 24901 ft 274 kts 156°
2026-05-07 22:22 -18.67564 -54.13058 24906 ft 274 kts 156°
2026-05-07 22:22 -18.69283 -54.12173 24915 ft 274 kts 156°
2026-05-07 22:22 -18.71014 -54.11281 24914 ft 275 kts 156°
2026-05-07 22:23 -18.72738 -54.10390 24918 ft 275 kts 156°
2026-05-07 22:23 -18.74450 -54.09508 24915 ft 275 kts 156°
2026-05-07 22:23 -18.76186 -54.08613 24916 ft 276 kts 156°
2026-05-07 22:23 -18.77905 -54.07729 24914 ft 276 kts 156°
2026-05-07 22:24 -18.79621 -54.06845 24915 ft 276 kts 156°
2026-05-07 22:24 -18.81364 -54.05946 24918 ft 276 kts 156°
2026-05-07 22:24 -18.83088 -54.05057 24915 ft 276 kts 156°
2026-05-07 22:24 -18.84812 -54.04165 24916 ft 276 kts 156°
2026-05-07 22:25 -18.86535 -54.03278 24912 ft 276 kts 156°
2026-05-07 22:25 -18.88273 -54.02382 24915 ft 276 kts 156°
2026-05-07 22:25 -18.90008 -54.01487 24918 ft 277 kts 156°
2026-05-07 22:25 -18.91729 -54.00599 24918 ft 277 kts 156°
2026-05-07 22:26 -18.93456 -53.99709 24917 ft 277 kts 156°
2026-05-07 22:26 -18.95207 -53.98804 24920 ft 277 kts 156°
2026-05-07 22:26 -18.96952 -53.97904 24920 ft 277 kts 156°
2026-05-07 22:26 -18.98679 -53.97009 24923 ft 277 kts 156°
2026-05-07 22:27 -19.00411 -53.96114 24923 ft 277 kts 156°
2026-05-07 22:27 -19.02150 -53.95209 24924 ft 278 kts 157°
2026-05-07 22:27 -19.03893 -53.94312 24923 ft 278 kts 157°
2026-05-07 22:27 -19.05615 -53.93421 24928 ft 278 kts 157°
2026-05-07 22:28 -19.07350 -53.92525 24928 ft 278 kts 156°
2026-05-07 22:28 -19.09096 -53.91620 24932 ft 278 kts 157°
2026-05-07 22:28 -19.10834 -53.90722 24928 ft 278 kts 157°
2026-05-07 22:28 -19.12584 -53.89815 24931 ft 278 kts 156°
2026-05-07 22:29 -19.14331 -53.88913 24932 ft 278 kts 157°
2026-05-07 22:29 -19.16067 -53.88010 24937 ft 278 kts 157°
2026-05-07 22:29 -19.17814 -53.87108 24936 ft 278 kts 157°
2026-05-07 22:29 -19.19566 -53.86201 24943 ft 278 kts 157°
2026-05-07 22:30 -19.21288 -53.85307 24943 ft 278 kts 157°
2026-05-07 22:30 -19.23034 -53.84404 24946 ft 278 kts 156°
2026-05-07 22:30 -19.24773 -53.83501 24946 ft 278 kts 157°
2026-05-07 22:30 -19.26529 -53.82590 24945 ft 278 kts 157°
2026-05-07 22:31 -19.28245 -53.81695 24944 ft 279 kts 157°
2026-05-07 22:31 -19.30005 -53.80783 24943 ft 279 kts 157°
2026-05-07 22:31 -19.31735 -53.79888 24944 ft 279 kts 157°
2026-05-07 22:31 -19.33487 -53.78979 24952 ft 279 kts 157°
2026-05-07 22:32 -19.35226 -53.78074 24958 ft 279 kts 157°
2026-05-07 22:32 -19.36982 -53.77163 24965 ft 279 kts 157°
2026-05-07 22:32 -19.38726 -53.76259 24969 ft 279 kts 157°
2026-05-07 22:32 -19.40459 -53.75356 24971 ft 279 kts 157°
2026-05-07 22:33 -19.42225 -53.74439 24974 ft 279 kts 157°
2026-05-07 22:33 -19.43953 -53.73541 24968 ft 280 kts 157°
2026-05-07 22:33 -19.45721 -53.72621 24968 ft 280 kts 157°
2026-05-07 22:33 -19.47463 -53.71714 24966 ft 280 kts 157°
2026-05-07 22:34 -19.49202 -53.70811 24967 ft 280 kts 157°
2026-05-07 22:34 -19.50957 -53.69895 24966 ft 280 kts 157°
2026-05-07 22:34 -19.52707 -53.68986 24965 ft 280 kts 157°
2026-05-07 22:34 -19.54473 -53.68069 24964 ft 281 kts 157°
2026-05-07 22:35 -19.56227 -53.67153 24965 ft 281 kts 157°
2026-05-07 22:35 -19.57990 -53.66234 24960 ft 281 kts 157°
2026-05-07 22:35 -19.59724 -53.65331 24957 ft 281 kts 157°
2026-05-07 22:35 -19.61484 -53.64413 24957 ft 281 kts 157°
2026-05-07 22:36 -19.63249 -53.63491 24957 ft 281 kts 157°
2026-05-07 22:36 -19.65013 -53.62573 24953 ft 282 kts 157°
2026-05-07 22:36 -19.66778 -53.61652 24952 ft 282 kts 158°
2026-05-07 22:36 -19.68536 -53.60734 24951 ft 282 kts 157°
2026-05-07 22:37 -19.70303 -53.59815 24951 ft 282 kts 157°
2026-05-07 22:37 -19.72059 -53.58901 24946 ft 282 kts 157°
2026-05-07 22:37 -19.73872 -53.58109 24942 ft 278 kts 170°
2026-05-07 22:37 -19.75622 -53.57254 24948 ft 283 kts 146°
2026-05-07 22:38 -19.77256 -53.56081 24948 ft 282 kts 150°
2026-05-07 22:38 -19.78923 -53.54985 24947 ft 282 kts 152°
2026-05-07 22:38 -19.80607 -53.53930 24946 ft 283 kts 153°
2026-05-07 22:38 -19.82313 -53.52885 24945 ft 283 kts 154°
2026-05-07 22:39 -19.84043 -53.51842 24943 ft 283 kts 154°
2026-05-07 22:39 -19.85753 -53.50817 24941 ft 283 kts 154°
2026-05-07 22:39 -19.87485 -53.49779 24941 ft 283 kts 154°
2026-05-07 22:39 -19.89187 -53.48763 24937 ft 284 kts 154°
2026-05-07 22:40 -19.90919 -53.47729 24935 ft 284 kts 154°
2026-05-07 22:40 -19.92655 -53.46693 24933 ft 284 kts 154°
2026-05-07 22:40 -19.94374 -53.45667 24930 ft 284 kts 154°
2026-05-07 22:40 -19.96094 -53.44640 24927 ft 285 kts 154°
2026-05-07 22:41 -19.97839 -53.43601 24930 ft 285 kts 154°
2026-05-07 22:41 -19.99549 -53.42576 24928 ft 285 kts 154°
2026-05-07 22:41 -20.01282 -53.41544 24925 ft 285 kts 154°
2026-05-07 22:41 -20.03021 -53.40503 24923 ft 285 kts 154°
2026-05-07 22:42 -20.04740 -53.39472 24923 ft 285 kts 154°
2026-05-07 22:42 -20.06481 -53.38432 24923 ft 285 kts 154°
2026-05-07 22:42 -20.08221 -53.37389 24921 ft 285 kts 154°
2026-05-07 22:42 -20.09944 -53.36358 24919 ft 286 kts 154°
2026-05-07 22:43 -20.11691 -53.35315 24915 ft 286 kts 154°
2026-05-07 22:43 -20.13419 -53.34281 24908 ft 286 kts 154°
2026-05-07 22:43 -20.15154 -53.33245 24908 ft 286 kts 154°
2026-05-07 22:43 -20.16894 -53.32202 24910 ft 285 kts 154°
2026-05-07 22:44 -20.18638 -53.31156 24910 ft 285 kts 154°
2026-05-07 22:44 -20.20347 -53.30129 24908 ft 285 kts 154°
2026-05-07 22:44 -20.22091 -53.29087 24906 ft 285 kts 154°
2026-05-07 22:44 -20.23812 -53.28056 24905 ft 285 kts 154°
2026-05-07 22:45 -20.25551 -53.27013 24906 ft 285 kts 154°
2026-05-07 22:45 -20.27266 -53.25982 24905 ft 284 kts 154°
2026-05-07 22:45 -20.28988 -53.24949 24903 ft 284 kts 154°
2026-05-07 22:45 -20.30724 -53.23906 24906 ft 284 kts 154°
2026-05-07 22:46 -20.32449 -53.22871 24910 ft 284 kts 154°
2026-05-07 22:46 -20.34166 -53.21842 24916 ft 284 kts 154°
2026-05-07 22:46 -20.35881 -53.20810 24920 ft 284 kts 154°
2026-05-07 22:46 -20.37623 -53.19761 24919 ft 284 kts 154°
2026-05-07 22:47 -20.39337 -53.18733 24919 ft 285 kts 154°
2026-05-07 22:47 -20.41058 -53.17701 24919 ft 285 kts 154°
2026-05-07 22:47 -20.42800 -53.16658 24919 ft 285 kts 154°
2026-05-07 22:47 -20.44540 -53.15606 24918 ft 285 kts 154°
2026-05-07 22:48 -20.46256 -53.14574 24919 ft 285 kts 154°
2026-05-07 22:48 -20.47988 -53.13534 24917 ft 285 kts 154°
2026-05-07 22:48 -20.49710 -53.12493 24919 ft 285 kts 154°
2026-05-07 22:48 -20.51461 -53.11439 24914 ft 286 kts 154°
2026-05-07 22:49 -20.53190 -53.10401 24917 ft 285 kts 154°
2026-05-07 22:49 -20.54918 -53.09359 24917 ft 285 kts 154°
2026-05-07 22:49 -20.56645 -53.08320 24918 ft 285 kts 154°
2026-05-07 22:49 -20.58385 -53.07274 24918 ft 286 kts 154°
2026-05-07 22:50 -20.60121 -53.06224 24912 ft 286 kts 154°
2026-05-07 22:50 -20.61838 -53.05189 24907 ft 286 kts 154°
2026-05-07 22:50 -20.63577 -53.04141 24903 ft 287 kts 154°
2026-05-07 22:50 -20.65320 -53.03086 24903 ft 287 kts 154°
2026-05-07 22:51 -20.67078 -53.02023 24905 ft 287 kts 154°
2026-05-07 22:51 -20.68806 -53.00984 24908 ft 287 kts 154°
2026-05-07 22:51 -20.70532 -52.99942 24910 ft 287 kts 154°
2026-05-07 22:51 -20.72276 -52.98885 24913 ft 287 kts 154°
2026-05-07 22:52 -20.74027 -52.97830 24913 ft 287 kts 154°
2026-05-07 22:52 -20.75746 -52.96791 24913 ft 287 kts 154°
2026-05-07 22:52 -20.77490 -52.95739 24913 ft 287 kts 154°
2026-05-07 22:52 -20.79225 -52.94690 24911 ft 287 kts 154°
2026-05-07 22:53 -20.80973 -52.93634 24912 ft 287 kts 154°
2026-05-07 22:53 -20.82725 -52.92572 24912 ft 287 kts 154°
2026-05-07 22:53 -20.84449 -52.91531 24913 ft 287 kts 154°
2026-05-07 22:53 -20.86211 -52.90464 24911 ft 288 kts 154°
2026-05-07 22:54 -20.87938 -52.89416 24912 ft 288 kts 154°
2026-05-07 22:54 -20.89697 -52.88350 24916 ft 288 kts 154°
2026-05-07 22:54 -20.91439 -52.87297 24915 ft 288 kts 154°
2026-05-07 22:54 -20.93187 -52.86236 24915 ft 288 kts 154°
2026-05-07 22:55 -20.94934 -52.85180 24916 ft 288 kts 154°
2026-05-07 22:55 -20.96659 -52.84134 24917 ft 288 kts 154°
2026-05-07 22:55 -20.98423 -52.83062 24921 ft 288 kts 154°
2026-05-07 22:55 -21.00152 -52.82012 24921 ft 288 kts 154°
2026-05-07 22:56 -21.01897 -52.80959 24922 ft 288 kts 154°
2026-05-07 22:56 -21.03647 -52.79897 24923 ft 288 kts 154°
2026-05-07 22:56 -21.05398 -52.78830 24922 ft 289 kts 154°
2026-05-07 22:56 -21.07141 -52.77775 24921 ft 289 kts 154°
2026-05-07 22:57 -21.08914 -52.76697 24920 ft 289 kts 154°
2026-05-07 22:57 -21.10652 -52.75641 24919 ft 289 kts 154°
2026-05-07 22:57 -21.12409 -52.74572 24919 ft 289 kts 154°
2026-05-07 22:57 -21.14158 -52.73510 24917 ft 289 kts 154°
2026-05-07 22:58 -21.15890 -52.72453 24914 ft 289 kts 154°
2026-05-07 22:58 -21.17653 -52.71384 24913 ft 289 kts 154°
2026-05-07 22:58 -21.19405 -52.70319 24911 ft 289 kts 154°
2026-05-07 22:58 -21.21146 -52.69257 24910 ft 289 kts 154°
2026-05-07 22:59 -21.22893 -52.68195 24910 ft 289 kts 154°
2026-05-07 22:59 -21.24639 -52.67131 24908 ft 289 kts 154°
2026-05-07 22:59 -21.26404 -52.66058 24906 ft 289 kts 154°
2026-05-07 22:59 -21.28137 -52.65000 24904 ft 289 kts 154°
2026-05-07 23:00 -21.29876 -52.63940 24905 ft 289 kts 154°
2026-05-07 23:00 -21.31650 -52.62859 24904 ft 289 kts 154°
2026-05-07 23:00 -21.33399 -52.61796 24902 ft 289 kts 154°
2026-05-07 23:00 -21.35146 -52.60730 24902 ft 289 kts 154°
2026-05-07 23:01 -21.36890 -52.59667 24901 ft 289 kts 154°
2026-05-07 23:01 -21.38656 -52.58587 24898 ft 289 kts 154°
2026-05-07 23:01 -21.40396 -52.57524 24903 ft 289 kts 154°
2026-05-07 23:01 -21.42149 -52.56455 24903 ft 290 kts 154°
2026-05-07 23:02 -21.43901 -52.55384 24904 ft 289 kts 154°
2026-05-07 23:02 -21.45640 -52.54322 24904 ft 289 kts 154°
2026-05-07 23:02 -21.47413 -52.53239 24907 ft 289 kts 154°
2026-05-07 23:02 -21.49150 -52.52177 24906 ft 289 kts 154°
2026-05-07 23:03 -21.50907 -52.51102 24908 ft 289 kts 154°
2026-05-07 23:03 -21.52659 -52.50035 24909 ft 289 kts 154°
2026-05-07 23:03 -21.54398 -52.48970 24908 ft 289 kts 154°
2026-05-07 23:03 -21.56149 -52.47895 24906 ft 290 kts 154°
2026-05-07 23:04 -21.57919 -52.46815 24904 ft 290 kts 154°
2026-05-07 23:04 -21.59652 -52.45754 24907 ft 290 kts 154°
2026-05-07 23:04 -21.61424 -52.44663 24906 ft 290 kts 154°
2026-05-07 23:04 -21.63161 -52.43604 24905 ft 290 kts 154°
2026-05-07 23:05 -21.64920 -52.42524 24902 ft 290 kts 154°
2026-05-07 23:05 -21.66668 -52.41452 24903 ft 290 kts 154°
2026-05-07 23:05 -21.68444 -52.40362 24901 ft 290 kts 154°
2026-05-07 23:05 -21.70193 -52.39294 24899 ft 291 kts 154°
2026-05-07 23:06 -21.71962 -52.38206 24898 ft 291 kts 154°
2026-05-07 23:06 -21.73718 -52.37131 24893 ft 291 kts 154°
2026-05-07 23:06 -21.75466 -52.36060 24893 ft 291 kts 154°
2026-05-07 23:06 -21.77224 -52.34978 24896 ft 291 kts 154°
2026-05-07 23:07 -21.78989 -52.33892 24891 ft 291 kts 154°
2026-05-07 23:07 -21.80747 -52.32814 24889 ft 290 kts 154°
2026-05-07 23:07 -21.82506 -52.31735 24891 ft 290 kts 154°
2026-05-07 23:07 -21.84252 -52.30659 24889 ft 290 kts 154°
2026-05-07 23:08 -21.86011 -52.29577 24889 ft 290 kts 154°
2026-05-07 23:08 -21.87764 -52.28498 24891 ft 290 kts 154°
2026-05-07 23:08 -21.89450 -52.27322 24887 ft 291 kts 147°
2026-05-07 23:08 -21.91107 -52.26028 24886 ft 291 kts 147°
2026-05-07 23:09 -21.92745 -52.24741 24888 ft 291 kts 147°
2026-05-07 23:09 -21.94389 -52.23454 24890 ft 291 kts 147°
2026-05-07 23:09 -21.96016 -52.22176 24890 ft 291 kts 147°
2026-05-07 23:09 -21.97647 -52.20893 24890 ft 291 kts 147°
2026-05-07 23:10 -21.99299 -52.19601 24891 ft 291 kts 147°
2026-05-07 23:10 -22.00933 -52.18323 24895 ft 291 kts 147°
2026-05-07 23:10 -22.02582 -52.17029 24895 ft 291 kts 147°
2026-05-07 23:10 -22.04212 -52.15749 24898 ft 291 kts 147°
2026-05-07 23:11 -22.05844 -52.14471 24896 ft 291 kts 147°
2026-05-07 23:11 -22.07501 -52.13174 24899 ft 291 kts 147°
2026-05-07 23:11 -22.09127 -52.11894 24899 ft 291 kts 147°
2026-05-07 23:11 -22.10766 -52.10609 24898 ft 291 kts 147°
2026-05-07 23:12 -22.12391 -52.09336 24900 ft 291 kts 147°
2026-05-07 23:12 -22.14051 -52.08032 24901 ft 291 kts 147°
2026-05-07 23:12 -22.15690 -52.06743 24905 ft 291 kts 147°
2026-05-07 23:12 -22.17322 -52.05458 24903 ft 291 kts 147°
2026-05-07 23:13 -22.18980 -52.04154 24899 ft 292 kts 147°
2026-05-07 23:13 -22.20600 -52.02884 24897 ft 292 kts 147°
2026-05-07 23:13 -22.22251 -52.01584 24895 ft 292 kts 147°
2026-05-07 23:13 -22.23893 -52.00293 24894 ft 292 kts 147°
2026-05-07 23:14 -22.25520 -51.99013 24890 ft 292 kts 147°
2026-05-07 23:14 -22.27167 -51.97721 24890 ft 292 kts 147°
2026-05-07 23:14 -22.28808 -51.96424 24888 ft 292 kts 147°
2026-05-07 23:14 -22.30459 -51.95126 24887 ft 292 kts 147°
2026-05-07 23:15 -22.32105 -51.93830 24889 ft 292 kts 147°
2026-05-07 23:15 -22.33740 -51.92542 24892 ft 292 kts 147°
2026-05-07 23:15 -22.35389 -51.91239 24893 ft 292 kts 147°
2026-05-07 23:15 -22.37027 -51.89950 24894 ft 293 kts 147°
2026-05-07 23:16 -22.38685 -51.88638 24901 ft 293 kts 147°
2026-05-07 23:16 -22.40313 -51.87357 24906 ft 292 kts 147°
2026-05-07 23:16 -22.41961 -51.86054 24908 ft 292 kts 147°
2026-05-07 23:16 -22.43615 -51.84751 24907 ft 293 kts 147°
2026-05-07 23:17 -22.45267 -51.83445 24907 ft 293 kts 147°
2026-05-07 23:17 -22.46907 -51.82149 24911 ft 293 kts 147°
2026-05-07 23:17 -22.48543 -51.80856 24909 ft 293 kts 147°
2026-05-07 23:17 -22.50191 -51.79555 24915 ft 293 kts 147°
2026-05-07 23:18 -22.51849 -51.78244 24916 ft 293 kts 147°
2026-05-07 23:18 -22.53502 -51.76934 24915 ft 293 kts 147°
2026-05-07 23:18 -22.55131 -51.75644 24918 ft 293 kts 147°
2026-05-07 23:18 -22.56791 -51.74330 24920 ft 293 kts 147°
2026-05-07 23:19 -22.58443 -51.73022 24921 ft 293 kts 147°
2026-05-07 23:19 -22.60078 -51.71730 24920 ft 294 kts 147°
2026-05-07 23:19 -22.61739 -51.70415 24922 ft 294 kts 147°
2026-05-07 23:19 -22.63389 -51.69107 24922 ft 294 kts 147°
2026-05-07 23:20 -22.65029 -51.67807 24920 ft 294 kts 147°
2026-05-07 23:20 -22.66690 -51.66494 24921 ft 294 kts 147°
2026-05-07 23:20 -22.68349 -51.65174 24919 ft 295 kts 147°
2026-05-07 23:20 -22.70006 -51.63863 24918 ft 295 kts 147°
2026-05-07 23:21 -22.71662 -51.62549 24918 ft 295 kts 147°
2026-05-07 23:21 -22.73315 -51.61234 24920 ft 295 kts 147°
2026-05-07 23:21 -22.74954 -51.59933 24919 ft 295 kts 147°
2026-05-07 23:21 -22.76616 -51.58612 24917 ft 295 kts 147°
2026-05-07 23:22 -22.78273 -51.57296 24917 ft 295 kts 147°
2026-05-07 23:22 -22.79948 -51.55968 24920 ft 296 kts 147°
2026-05-07 23:22 -22.81597 -51.54651 24923 ft 296 kts 147°
2026-05-07 23:22 -22.83250 -51.53339 24927 ft 296 kts 147°
2026-05-07 23:23 -22.84909 -51.52020 24930 ft 296 kts 147°
2026-05-07 23:23 -22.86575 -51.50691 24933 ft 296 kts 147°
2026-05-07 23:23 -22.88244 -51.49365 24932 ft 296 kts 147°
2026-05-07 23:23 -22.89895 -51.48054 24938 ft 296 kts 147°
2026-05-07 23:24 -22.91550 -51.46735 24940 ft 296 kts 147°
2026-05-07 23:24 -22.93217 -51.45408 24944 ft 296 kts 147°
2026-05-07 23:24 -22.94891 -51.44075 24945 ft 296 kts 147°
2026-05-07 23:24 -22.96557 -51.42745 24948 ft 297 kts 147°
2026-05-07 23:25 -22.98203 -51.41425 24950 ft 297 kts 147°
2026-05-07 23:25 -22.99869 -51.40099 24954 ft 297 kts 147°
2026-05-07 23:25 -23.01527 -51.38776 24957 ft 297 kts 147°
2026-05-07 23:25 -23.03208 -51.37433 24958 ft 297 kts 147°
2026-05-07 23:26 -23.04864 -51.36111 24962 ft 297 kts 147°
2026-05-07 23:26 -23.06534 -51.34779 24958 ft 297 kts 147°
2026-05-07 23:26 -23.08216 -51.33437 24956 ft 297 kts 147°
2026-05-07 23:26 -23.09858 -51.32120 24953 ft 297 kts 147°
2026-05-07 23:27 -23.13207 -51.29446 24947 ft 297 kts 146°
2026-05-07 23:27 -23.14868 -51.28117 24945 ft 296 kts 147°
2026-05-07 23:27 -23.16510 -51.26801 24950 ft 296 kts 147°
2026-05-07 23:28 -23.18178 -51.25470 24952 ft 296 kts 147°
2026-05-07 23:28 -23.19838 -51.24139 24950 ft 296 kts 147°
2026-05-07 23:28 -23.21486 -51.22821 24948 ft 296 kts 147°
2026-05-07 23:28 -23.23165 -51.21475 24952 ft 296 kts 146°
2026-05-07 23:29 -23.24811 -51.20151 24949 ft 296 kts 147°
2026-05-07 23:29 -23.26474 -51.18816 24949 ft 296 kts 147°
2026-05-07 23:29 -23.28111 -51.17500 24948 ft 296 kts 147°
2026-05-07 23:29 -23.29785 -51.16162 24950 ft 296 kts 147°
2026-05-07 23:30 -23.31434 -51.14842 24951 ft 296 kts 147°
2026-05-07 23:30 -23.33094 -51.13506 24953 ft 296 kts 147°
2026-05-07 23:30 -23.34753 -51.12169 24950 ft 296 kts 146°
2026-05-07 23:30 -23.36380 -51.10772 24953 ft 296 kts 145°
2026-05-07 23:31 -23.37985 -51.09392 24954 ft 297 kts 145°
2026-05-07 23:31 -23.39608 -51.07992 24953 ft 297 kts 144°
2026-05-07 23:31 -23.41239 -51.06587 24950 ft 297 kts 144°
2026-05-07 23:31 -23.42845 -51.05198 24957 ft 297 kts 144°
2026-05-07 23:32 -23.44465 -51.03797 24958 ft 297 kts 144°
2026-05-07 23:32 -23.46089 -51.02398 24955 ft 298 kts 145°
2026-05-07 23:32 -23.47722 -51.00985 24954 ft 298 kts 145°
2026-05-07 23:32 -23.49329 -50.99601 24952 ft 298 kts 145°
2026-05-07 23:33 -23.50958 -50.98192 24954 ft 298 kts 144°
2026-05-07 23:33 -23.52586 -50.96787 24956 ft 298 kts 144°
2026-05-07 23:33 -23.54207 -50.95382 24952 ft 298 kts 144°
2026-05-07 23:33 -23.55830 -50.93982 24957 ft 297 kts 144°
2026-05-07 23:34 -23.57458 -50.92573 24963 ft 297 kts 144°
2026-05-07 23:34 -23.59062 -50.91185 24970 ft 298 kts 144°
2026-05-07 23:34 -23.60700 -50.89767 24974 ft 298 kts 144°
2026-05-07 23:34 -23.62317 -50.88370 24980 ft 298 kts 144°
2026-05-07 23:35 -23.63932 -50.86967 24990 ft 298 kts 144°
2026-05-07 23:35 -23.65557 -50.85560 24996 ft 298 kts 144°
2026-05-07 23:35 -23.67201 -50.84135 25002 ft 298 kts 144°
2026-05-07 23:35 -23.68821 -50.82733 25010 ft 299 kts 144°
2026-05-07 23:36 -23.70439 -50.81327 25018 ft 299 kts 144°
2026-05-07 23:36 -23.72081 -50.79903 25027 ft 299 kts 144°
2026-05-07 23:36 -23.73683 -50.78513 25038 ft 299 kts 144°
2026-05-07 23:36 -23.75321 -50.77092 25043 ft 299 kts 144°
2026-05-07 23:37 -23.76960 -50.75668 25047 ft 299 kts 144°
2026-05-07 23:37 -23.78590 -50.74254 25045 ft 299 kts 144°
2026-05-07 23:37 -23.80206 -50.72849 25045 ft 300 kts 144°
2026-05-07 23:37 -23.81847 -50.71424 25036 ft 300 kts 144°
2026-05-07 23:38 -23.83489 -50.69994 25028 ft 300 kts 144°
2026-05-07 23:38 -23.85123 -50.68570 25023 ft 301 kts 144°
2026-05-07 23:38 -23.86756 -50.67150 25021 ft 301 kts 144°
2026-05-07 23:38 -23.88384 -50.65736 25021 ft 301 kts 144°
2026-05-07 23:39 -23.90029 -50.64307 25019 ft 301 kts 144°
2026-05-07 23:39 -23.91654 -50.62888 25019 ft 301 kts 144°
2026-05-07 23:39 -23.93305 -50.61449 25018 ft 301 kts 144°
2026-05-07 23:39 -23.94929 -50.60035 25018 ft 301 kts 144°
2026-05-07 23:40 -23.96570 -50.58602 25021 ft 301 kts 144°
2026-05-07 23:40 -23.98216 -50.57166 25022 ft 301 kts 144°
2026-05-07 23:40 -23.99856 -50.55738 25021 ft 301 kts 144°
2026-05-07 23:40 -24.01497 -50.54304 25024 ft 301 kts 144°
2026-05-07 23:41 -24.03132 -50.52877 25028 ft 301 kts 144°
2026-05-07 23:41 -24.04772 -50.51444 25028 ft 301 kts 144°
2026-05-07 23:41 -24.06385 -50.50036 25035 ft 301 kts 144°
2026-05-07 23:41 -24.08040 -50.48589 25033 ft 301 kts 144°
2026-05-07 23:42 -24.09680 -50.47155 25030 ft 301 kts 144°
2026-05-07 23:42 -24.11306 -50.45735 25026 ft 301 kts 144°
2026-05-07 23:42 -24.12884 -50.44358 25020 ft 301 kts 144°
2026-05-07 23:42 -24.14529 -50.42916 25023 ft 301 kts 144°
2026-05-07 23:43 -24.16151 -50.41491 25029 ft 301 kts 144°
2026-05-07 23:43 -24.17802 -50.40048 25032 ft 301 kts 144°
2026-05-07 23:43 -24.19433 -50.38621 25033 ft 301 kts 144°
2026-05-07 23:43 -24.21065 -50.37193 25037 ft 301 kts 144°
2026-05-07 23:44 -24.22692 -50.35766 25039 ft 301 kts 144°
2026-05-07 23:44 -24.24326 -50.34330 25036 ft 301 kts 144°
2026-05-07 23:44 -24.25984 -50.32874 25036 ft 301 kts 144°
2026-05-07 23:44 -24.27616 -50.31443 25041 ft 300 kts 143°
2026-05-07 23:45 -24.29246 -50.30017 25045 ft 300 kts 144°
2026-05-07 23:45 -24.30880 -50.28582 25045 ft 300 kts 144°
2026-05-07 23:45 -24.32501 -50.27152 25049 ft 300 kts 144°
2026-05-07 23:45 -24.34120 -50.25734 25055 ft 300 kts 143°
2026-05-07 23:46 -24.35768 -50.24289 25053 ft 300 kts 144°
2026-05-07 23:46 -24.37383 -50.22863 25056 ft 300 kts 143°
2026-05-07 23:46 -24.39005 -50.21440 25058 ft 300 kts 143°
2026-05-07 23:46 -24.40632 -50.20009 25057 ft 300 kts 143°
2026-05-07 23:47 -24.42261 -50.18573 25057 ft 300 kts 144°
2026-05-07 23:47 -24.43908 -50.17121 25055 ft 300 kts 144°
2026-05-07 23:47 -24.45518 -50.15704 25060 ft 301 kts 144°
2026-05-07 23:47 -24.47169 -50.14252 25054 ft 301 kts 144°
2026-05-07 23:48 -24.48787 -50.12825 25063 ft 300 kts 144°
2026-05-07 23:48 -24.50414 -50.11389 25061 ft 301 kts 144°
2026-05-07 23:48 -24.52059 -50.09945 25056 ft 301 kts 143°
2026-05-07 23:48 -24.53688 -50.08505 25056 ft 301 kts 143°
2026-05-07 23:49 -24.55332 -50.07054 25061 ft 301 kts 143°
2026-05-07 23:49 -24.56954 -50.05622 25057 ft 301 kts 144°
2026-05-07 23:49 -24.58577 -50.04187 25061 ft 301 kts 144°
2026-05-07 23:49 -24.60234 -50.02723 25058 ft 302 kts 144°
2026-05-07 23:50 -24.61858 -50.01287 25054 ft 302 kts 144°
2026-05-07 23:50 -24.63504 -49.99837 25053 ft 302 kts 143°
2026-05-07 23:50 -24.65135 -49.98392 25052 ft 301 kts 143°
2026-05-07 23:50 -24.66770 -49.96946 25053 ft 302 kts 143°
2026-05-07 23:51 -24.68405 -49.95500 25055 ft 302 kts 143°
2026-05-07 23:51 -24.70029 -49.94060 25050 ft 302 kts 144°
2026-05-07 23:51 -24.71662 -49.92614 25050 ft 302 kts 143°
2026-05-07 23:51 -24.73296 -49.91170 25048 ft 302 kts 143°
2026-05-07 23:52 -24.74933 -49.89717 25046 ft 302 kts 143°
2026-05-07 23:52 -24.76585 -49.88257 25048 ft 303 kts 144°
2026-05-07 23:52 -24.78222 -49.86811 25048 ft 303 kts 144°
2026-05-07 23:52 -24.79886 -49.85346 25042 ft 303 kts 144°
2026-05-07 23:53 -24.81534 -49.83896 25046 ft 303 kts 144°
2026-05-07 23:53 -24.83181 -49.82446 25040 ft 304 kts 144°
2026-05-07 23:53 -24.84827 -49.81004 25043 ft 303 kts 144°
2026-05-07 23:53 -24.86486 -49.79556 25044 ft 303 kts 144°
2026-05-07 23:54 -24.88134 -49.78112 25044 ft 303 kts 144°
2026-05-07 23:54 -24.89777 -49.76685 25047 ft 304 kts 144°
2026-05-07 23:54 -24.91442 -49.75236 25048 ft 304 kts 144°
2026-05-07 23:54 -24.93108 -49.73786 25047 ft 304 kts 144°
2026-05-07 23:55 -24.94773 -49.72340 25040 ft 304 kts 144°
2026-05-07 23:55 -24.96434 -49.70904 25040 ft 304 kts 144°
2026-05-07 23:55 -24.98095 -49.69470 25033 ft 305 kts 144°
2026-05-07 23:55 -24.99769 -49.68029 25028 ft 305 kts 144°
2026-05-07 23:56 -25.01434 -49.66592 25028 ft 305 kts 144°
2026-05-07 23:56 -25.03105 -49.65154 25028 ft 305 kts 145°
2026-05-07 23:56 -25.04777 -49.63716 25033 ft 304 kts 145°
2026-05-07 23:56 -25.06443 -49.62290 25033 ft 304 kts 145°
2026-05-07 23:57 -25.08127 -49.60850 25033 ft 304 kts 145°
2026-05-07 23:57 -25.09800 -49.59428 24796 ft 310 kts 145°
2026-05-07 23:57 -25.11519 -49.57985 24424 ft 310 kts 145°
2026-05-07 23:57 -25.13221 -49.56525 24044 ft 311 kts 142°
2026-05-07 23:58 -25.14807 -49.54886 23665 ft 307 kts 139°
2026-05-07 23:58 -25.16351 -49.53304 23292 ft 303 kts 139°
2026-05-07 23:58 -25.17874 -49.51743 22920 ft 299 kts 139°
2026-05-07 23:58 -25.19404 -49.50175 22548 ft 297 kts 139°
2026-05-07 23:59 -25.20921 -49.48628 22185 ft 295 kts 139°
2026-05-07 23:59 -25.22418 -49.47112 21826 ft 293 kts 138°
2026-05-07 23:59 -25.23935 -49.45600 21465 ft 292 kts 139°
2026-05-07 23:59 -25.25453 -49.44107 21105 ft 291 kts 139°
2026-05-08 00:00 -25.26961 -49.42649 20751 ft 290 kts 139°
2026-05-08 00:00 -25.28481 -49.41196 20394 ft 290 kts 139°
2026-05-08 00:00 -25.30009 -49.39754 20036 ft 289 kts 139°
2026-05-08 00:00 -25.31553 -49.38308 19678 ft 289 kts 139°
2026-05-08 00:01 -25.33093 -49.36881 19323 ft 289 kts 139°
2026-05-08 00:01 -25.34641 -49.35459 18967 ft 289 kts 139°
2026-05-08 00:01 -25.36204 -49.34033 18605 ft 289 kts 139°
2026-05-08 00:01 -25.37750 -49.32651 18249 ft 289 kts 139°
2026-05-08 00:02 -25.39327 -49.31249 17888 ft 288 kts 139°
2026-05-08 00:02 -25.40863 -49.29895 17538 ft 287 kts 139°
2026-05-08 00:02 -25.42449 -49.28517 17176 ft 287 kts 139°
2026-05-08 00:02 -25.44024 -49.27161 16819 ft 287 kts 139°
2026-05-08 00:03 -25.45587 -49.25814 16465 ft 286 kts 139°
2026-05-08 00:03 -25.47159 -49.24460 16110 ft 286 kts 140°
2026-05-08 00:03 -25.48726 -49.23117 15756 ft 286 kts 140°
2026-05-08 00:03 -25.50309 -49.21771 15402 ft 285 kts 140°
2026-05-08 00:04 -25.51890 -49.20422 15047 ft 286 kts 140°
2026-05-08 00:04 -25.53457 -49.19098 14698 ft 285 kts 140°
2026-05-08 00:04 -25.55030 -49.17773 14347 ft 285 kts 140°
2026-05-08 00:04 -25.56610 -49.16462 13990 ft 281 kts 141°
2026-05-08 00:05 -25.58425 -49.15741 13602 ft 278 kts 181°
2026-05-08 00:05 -25.60199 -49.16408 13249 ft 262 kts 223°
2026-05-08 00:05 -25.61177 -49.17967 12907 ft 241 kts 261°
2026-05-08 00:05 -25.61170 -49.19705 12583 ft 225 kts 287°
2026-05-08 00:06 -25.60538 -49.21215 12212 ft 210 kts 320°
2026-05-08 00:06 -25.59393 -49.22194 11878 ft 210 kts 317°
2026-05-08 00:06 -25.58442 -49.23393 11541 ft 209 kts 317°
2026-05-08 00:06 -25.57420 -49.24550 11191 ft 209 kts 317°
2026-05-08 00:07 -25.56426 -49.25709 10839 ft 209 kts 317°
2026-05-08 00:07 -25.55409 -49.26877 10483 ft 208 kts 317°
2026-05-08 00:07 -25.54427 -49.28012 10131 ft 205 kts 317°
2026-05-08 00:07 -25.53449 -49.29134 9775 ft 202 kts 317°
2026-05-08 00:08 -25.52474 -49.30250 9414 ft 199 kts 317°
2026-05-08 00:08 -25.51512 -49.31354 9052 ft 198 kts 317°
2026-05-08 00:08 -25.50562 -49.32435 8692 ft 196 kts 317°
2026-05-08 00:08 -25.49609 -49.33524 8330 ft 195 kts 317°
2026-05-08 00:09 -25.48667 -49.34595 7971 ft 195 kts 317°
2026-05-08 00:09 -25.47718 -49.35674 7608 ft 195 kts 317°
2026-05-08 00:09 -25.46769 -49.36742 7244 ft 194 kts 320°
2026-05-08 00:09 -25.45565 -49.37197 6859 ft 193 kts
2026-05-08 00:10 -25.44467 -49.36327 6517 ft 207 kts 46°
2026-05-08 00:10 -25.43593 -49.35072 6161 ft 204 kts 44°
2026-05-08 00:10 -25.42791 -49.33808 6031 ft 193 kts 48°
2026-05-08 00:10 -25.42077 -49.32605 5864 ft 191 kts 54°
2026-05-08 00:11 -25.42004 -49.31121 5613 ft 197 kts 98°
2026-05-08 00:11 -25.42368 -49.29718 5362 ft 190 kts 108°
2026-05-08 00:11 -25.43279 -49.28697 5122 ft 189 kts 148°
2026-05-08 00:11 -25.44373 -49.27901 4893 ft 182 kts 135°
2026-05-08 00:12 -25.45161 -49.26881 4802 ft 167 kts 120°
2026-05-08 00:12 -25.45811 -49.25835 4672 ft 161 kts 119°
2026-05-08 00:12 -25.46407 -49.24864 4478 ft 147 kts 123°
2026-05-08 00:12 -25.47078 -49.24083 4330 ft 136 kts 133°
2026-05-08 00:13 -25.47740 -49.23355 4142 ft 133 kts 131°
2026-05-08 00:13 -25.48368 -49.22621 3996 ft 128 kts 129°
2026-05-08 00:13 -25.48979 -49.21882 3767 ft 130 kts 131°
2026-05-08 00:13 -25.49607 -49.21197 3638 ft 124 kts 134°
2026-05-08 00:14 -25.50200 -49.20557 3535 ft 120 kts 132°
2026-05-08 00:14 -25.50775 -49.19912 3510 ft 114 kts 132°
2026-05-08 00:14 -25.51341 -49.19271 3298 ft 119 kts 134°
2026-05-08 00:14 -25.51920 -49.18617 3113 ft 116 kts 133°
2026-05-08 00:15 -25.52475 -49.17999 2990 ft 105 kts 133°
2026-05-08 00:15 -25.52865 -49.17555 2984 ft 52 kts 132°
2026-05-08 00:15 -25.53047 -49.17355 2988 ft 22 kts 133°
2026-05-08 00:15 -25.53142 -49.17289 2990 ft 13 kts 200°
2026-05-08 00:16 -25.53202 -49.17345 2990 ft 9 kts 230°
2026-05-08 00:16 -25.53204 -49.17402 2990 ft 7 kts 314°
2026-05-08 00:16 -25.53167 -49.17445 2989 ft 9 kts 313°
2026-05-08 00:16 -25.53103 -49.17517 2987 ft 15 kts 314°
2026-05-08 00:17 -25.53028 -49.17602 2985 ft 14 kts 316°
2026-05-08 00:17 -25.52982 -49.17691 2983 ft 12 kts 272°
2026-05-08 00:17 -25.52978 -49.17783 2982 ft 10 kts 271°
2026-05-08 00:17 -25.52973 -49.17865 2981 ft 10 kts 274°
2026-05-08 00:18 -25.53006 -49.17923 2980 ft 8 kts 223°
2026-05-08 00:18 -25.53047 -49.17968 2979 ft 7 kts 227°
2026-05-08 00:18 -25.53086 -49.18005 2978 ft 7 kts 176°
2026-05-08 00:18 -25.53083 -49.17975 2978 ft 3 kts 88°
2026-05-08 00:19 -25.53089 -49.17969 2979 ft 1 kts 185°
2026-05-08 00:19 -25.53094 -49.17973 2979 ft 0 kts 232°
2026-05-08 00:19 -25.53094 -49.17972 2979 ft 0 kts 232°